Location: Rosenheim
(47.8408°N, 12.2113°E)
Time: 03:25:00
(UTC+01:00)

ISS - Visible Passes

Search period start: 22 January 2018 00:00
Search period end: 01 February 2018 00:00
Orbit: 402 x 407 km, 51.6° (Epoch: 22 January)

Date Brightness Start Highest point End Pass type
(mag) Time Alt. Az. Time Alt. Az. Time Alt. Az.
25 Jan -0.7 19:46:03 10° SW 19:46:17 12° SW 19:46:17 12° SW visible
26 Jan -2.5 18:54:04 10° SSW 18:56:24 28° SSE 18:56:24 28° SSE visible
27 Jan -2.0 18:02:26 10° S 18:04:48 19° SE 18:06:25 14° ESE visible
27 Jan -1.5 19:37:39 10° WSW 19:39:05 24° WSW 19:39:05 24° WSW visible
28 Jan -3.7 18:45:22 10° SW 18:48:35 60° SSE 18:49:02 52° ESE visible
29 Jan -2.9 17:53:15 10° SSW 17:56:17 36° SE 17:58:54 13° E visible
29 Jan -2.2 19:29:27 10° W 19:31:34 35° WNW 19:31:34 35° WNW visible
30 Jan -3.8 18:36:58 10° WSW 18:40:14 78° NNW 18:41:23 37° ENE visible
30 Jan -0.3 20:13:51 10° WNW 20:14:02 11° WNW 20:14:02 11° WNW visible
31 Jan -3.7 17:44:35 10° WSW 17:47:50 70° SSE 17:51:05 10° ENE visible
31 Jan -2.6 19:21:18 10° W 19:23:48 37° NW 19:23:48 37° NW visible
